Weather reports worldwide

Advertisment
Greensboro/G.-High Pt., United States of America (72317): temperature & dewpoint: 28.06.2020 10:00:00 - 04.07.2020 10:00:00 (EDT)Greensboro/G.-High Pt., United States of America (72317): wind speed: 28.06.2020 10:00:00 - 04.07.2020 10:00:00 (EDT)Greensboro/G.-High Pt., United States of America (72317): wind direction: 28.06.2020 10:00:00 - 04.07.2020 10:00:00 (EDT)Greensboro/G.-High Pt., United States of America (72317): reduced air pressure: 28.06.2020 10:00:00 - 04.07.2020 10:00:00 (EDT)Greensboro/G.-High Pt., United States of America (72317): visibility: 28.06.2020 10:00:00 - 04.07.2020 10:00:00 (EDT)Greensboro/G.-High Pt., United States of America (72317): precipitation: 28.06.2020 10:00:00 - 04.07.2020 10:00:00 (EDT)
Date & Time tt [°C] td [°C] ff [km/h] ff [kn] dd ppp [hPa] vv [km] rr [mm]
04.07.2020 10:00:00 29,4 19,4 9 5 N 1013,4 16 -
04.07.2020 09:00:00 27,2 20,0 8 4 NW 1013,3 16 -
04.07.2020 08:00:00 25,0 20,0 5 3 WSW 1012,9 16 0,0
04.07.2020 07:00:00 23,3 20,0 0 0 N 1012,8 16 -
04.07.2020 06:00:00 23,3 18,9 0 0 N 1012,7 16 -
04.07.2020 05:00:00 21,7 18,3 5 3 W 1012,6 16 0,0
04.07.2020 04:00:00 22,8 18,9 9 5 WNW 1012,7 16 -
04.07.2020 03:00:00 23,9 18,3 0 0 N 1012,8 16 -
04.07.2020 02:00:00 23,3 18,9 9 5 W 1013,0 16 0,0
04.07.2020 01:00:00 23,9 18,9 5 3 SW 1013,2 16 -
04.07.2020 00:00:00 25,0 18,9 5 3 WSW 1013,4 16 -
03.07.2020 23:00:00 25,6 18,3 8 4 SW 1013,2 16 0,0
03.07.2020 22:00:00 26,1 17,8 5 3 SW 1012,7 16 -
03.07.2020 21:00:00 28,3 17,2 0 0 N 1011,9 16 -
03.07.2020 20:00:00 31,1 14,4 0 0 N 1011,7 16 0,0
03.07.2020 19:00:00 32,2 15,6 9 5 N 1011,8 16 -
03.07.2020 18:00:00 33,3 13,9 8 4 NNW 1011,8 16 -
03.07.2020 17:00:00 32,2 13,9 8 4 - 1012,3 16 0,0
03.07.2020 16:00:00 32,8 15,0 8 4 - 1013,0 16 -
03.07.2020 15:00:00 32,8 16,1 11 6 N 1013,4 16 -
03.07.2020 14:00:00 32,2 15,6 9 5 N 1013,9 16 0,0
03.07.2020 13:00:00 31,7 17,2 9 5 NNE 1014,2 16 -
03.07.2020 12:00:00 30,6 17,8 8 4 - 1014,6 16 -
03.07.2020 11:00:00 29,4 18,3 8 4 - 1014,5 16 0,0
03.07.2020 10:00:00 28,3 18,9 8 4 N 1014,5 16 -
03.07.2020 09:00:00 25,6 18,9 8 4 NNW 1014,7 16 -
03.07.2020 08:00:00 23,3 19,4 0 0 N 1014,4 16 0,0
03.07.2020 07:00:00 21,7 18,3 0 0 N 1014,1 16 -
03.07.2020 06:00:00 19,4 18,3 0 0 N 1013,6 16 -
03.07.2020 05:00:00 20,6 17,8 0 0 N 1013,4 16 0,0
03.07.2020 04:00:00 21,1 17,8 0 0 N 1013,3 16 -
03.07.2020 03:00:00 20,6 17,8 0 0 N 1013,6 16 -
03.07.2020 02:00:00 22,2 18,3 0 0 N 1013,9 16 0,0
03.07.2020 01:00:00 21,7 18,3 0 0 N 1014,0 16 -
03.07.2020 00:00:00 23,3 17,8 0 0 N 1013,7 16 -
02.07.2020 23:00:00 24,4 17,8 0 0 N 1013,4 16 0,0
02.07.2020 22:00:00 25,6 17,2 0 0 N 1012,8 16 -
02.07.2020 21:00:00 26,7 17,2 9 5 ENE 1012,2 16 -
02.07.2020 20:00:00 27,8 17,2 15 8 ENE 1012,3 16 0,0
02.07.2020 19:00:00 29,4 17,2 11 6 ENE 1012,2 16 -
02.07.2020 18:00:00 30,0 16,1 21 11 ENE 1012,2 16 -
02.07.2020 17:00:00 30,6 17,2 22 12 ENE 1012,2 16 0,0
02.07.2020 16:00:00 31,1 18,3 15 8 NNE 1012,1 16 -
02.07.2020 15:00:00 30,6 18,3 13 7 N 1012,3 16 -
02.07.2020 14:00:00 29,4 18,9 15 8 NNE 1012,5 16 0,0
02.07.2020 13:00:00 29,4 18,9 21 11 ENE 1012,8 16 -
02.07.2020 12:00:00 28,9 20,0 18 10 NE 1013,3 16 -
02.07.2020 11:00:00 27,2 20,0 15 8 NNE 1013,2 16 0,0
02.07.2020 10:00:00 26,1 19,4 16 9 NNE 1012,9 16 -
02.07.2020 09:00:00 23,9 20,0 11 6 N 1012,6 16 -
02.07.2020 08:00:00 22,2 20,0 11 6 N 1012,0 16 0,0
02.07.2020 07:00:00 20,6 19,4 8 4 N 1011,4 16 -
02.07.2020 06:00:00 20,0 19,4 11 6 NNE 1011,5 16 -
02.07.2020 05:00:00 20,6 19,4 5 3 N 1011,0 16 0,0
02.07.2020 04:00:00 21,7 19,4 9 5 N 1011,0 16 -
02.07.2020 03:00:00 22,2 19,4 11 6 NE 1010,9 16 -
02.07.2020 02:00:00 22,8 20,0 18 10 ENE 1010,6 16 0,0
02.07.2020 01:00:00 24,4 20,6 8 4 NNE 1010,3 16 -
02.07.2020 00:00:00 24,4 20,6 5 3 NW 1010,2 16 -
01.07.2020 23:00:00 25,6 20,6 0 0 N 1010,3 16 0,0
01.07.2020 22:00:00 26,7 20,6 5 3 - 1010,0 16 -
01.07.2020 21:00:00 27,2 19,4 5 3 WSW 1009,4 16 -
01.07.2020 20:00:00 28,9 18,9 0 0 N 1009,5 16 -
01.07.2020 19:00:00 30,6 19,4 13 7 WNW 1008,9 16 -
01.07.2020 18:00:00 29,4 20,6 11 6 W 1008,9 16 -
01.07.2020 17:00:00 30,0 20,0 0 0 N 1008,8 16 -
01.07.2020 16:00:00 30,0 21,1 13 7 WNW 1009,3 16 0,0
01.07.2020 15:00:00 30,0 18,9 8 4 - 1010,1 16 -
01.07.2020 14:00:00 30,0 18,3 5 3 - 1010,8 16 0,0
01.07.2020 13:00:00 30,0 20,0 8 4 - 1011,5 16 -
01.07.2020 12:00:00 28,3 20,0 0 0 N 1011,7 16 -
01.07.2020 11:00:00 27,2 21,1 8 4 E 1011,8 16 0,0
01.07.2020 10:00:00 25,6 20,6 8 4 NNE 1011,8 16 -
01.07.2020 09:00:00 25,0 20,6 5 3 - 1011,5 16 -
01.07.2020 08:00:00 21,7 20,6 0 0 N 1011,3 16 0,0
01.07.2020 07:00:00 20,6 20,0 0 0 N 1011,3 16 -
01.07.2020 06:00:00 20,6 20,0 0 0 N 1011,1 16 -
01.07.2020 05:00:00 20,6 19,4 0 0 N 1010,3 16 0,0
01.07.2020 04:00:00 21,1 19,4 8 4 WNW 1010,2 16 -
01.07.2020 03:00:00 20,6 19,4 5 3 W 1010,3 16 -
01.07.2020 02:00:00 21,1 19,4 8 4 NNE 1011,2 16 0,0
01.07.2020 01:00:00 21,1 18,9 5 3 WSW 1011,6 16 -
01.07.2020 00:00:00 21,1 18,9 9 5 WSW 1011,9 16 -
30.06.2020 23:00:00 22,2 18,3 8 4 W 1012,0 16 0,0
30.06.2020 22:00:00 22,2 18,3 8 4 W 1012,2 16 -
30.06.2020 21:00:00 22,8 18,3 5 3 SW 1011,6 16 -
30.06.2020 20:00:00 23,9 18,3 8 4 NW 1011,4 16 -
30.06.2020 19:00:00 25,0 20,0 13 7 NW 1011,3 16 0,0
30.06.2020 18:00:00 24,4 21,7 13 7 NW 1011,4 16 0,0
30.06.2020 17:00:00 25,6 21,7 18 10 NNW 1011,5 16 0,0
30.06.2020 16:00:00 27,8 20,0 15 8 WNW 1011,6 16 -
30.06.2020 15:00:00 28,3 20,6 9 5 W 1012,3 16 -
30.06.2020 14:00:00 28,9 20,0 9 5 - 1012,3 16 0,0
30.06.2020 13:00:00 28,3 20,0 8 4 NNW 1012,7 16 -
30.06.2020 12:00:00 28,9 20,6 11 6 NNE 1012,9 16 -
30.06.2020 11:00:00 27,8 20,0 15 8 NNE 1012,9 16 0,0
30.06.2020 10:00:00 27,2 20,0 13 7 NNE 1013,2 16 -
30.06.2020 09:00:00 25,0 20,0 9 5 NW 1013,1 16 -
30.06.2020 08:00:00 23,9 20,0 8 4 N 1012,8 16 0,0
30.06.2020 07:00:00 22,8 20,0 8 4 NNE 1012,3 16 -
30.06.2020 06:00:00 22,8 20,0 5 3 N 1012,0 16 -
30.06.2020 05:00:00 23,3 20,0 5 3 NNE 1011,6 16 0,0
30.06.2020 04:00:00 23,3 20,6 0 0 N 1011,4 16 -
30.06.2020 03:00:00 24,4 20,6 0 0 N 1011,4 16 -
30.06.2020 02:00:00 23,9 21,1 0 0 N 1012,0 16 0,0
30.06.2020 01:00:00 23,9 21,1 5 3 WSW 1012,4 16 -
30.06.2020 00:00:00 25,0 21,7 5 3 W 1012,7 16 -
29.06.2020 23:00:00 26,1 20,6 9 5 WSW 1012,9 16 0,0
29.06.2020 22:00:00 27,2 20,6 5 3 SSW 1012,3 16 -
29.06.2020 21:00:00 28,3 19,4 0 0 N 1011,9 16 -
29.06.2020 20:00:00 30,0 18,9 8 4 NW 1011,4 16 0,0
29.06.2020 19:00:00 30,0 19,4 5 3 NNW 1011,3 16 -
29.06.2020 18:00:00 30,0 18,9 8 4 - 1011,6 16 -
29.06.2020 17:00:00 31,1 19,4 9 5 NE 1011,8 16 0,0
29.06.2020 16:00:00 31,1 18,9 5 3 - 1012,1 16 -
29.06.2020 15:00:00 31,1 19,4 13 7 N 1012,6 16 -
29.06.2020 14:00:00 30,6 18,9 13 7 NNE 1012,6 16 0,0
29.06.2020 13:00:00 28,9 20,0 9 5 - 1012,9 16 -
29.06.2020 12:00:00 28,9 20,0 16 9 N 1013,2 16 -
29.06.2020 11:00:00 27,2 20,0 16 9 NW 1013,3 16 0,0
29.06.2020 10:00:00 26,1 20,0 16 9 NW 1013,6 16 -
29.06.2020 09:00:00 25,6 20,0 18 10 WNW 1013,1 16 -
29.06.2020 08:00:00 23,9 19,4 15 8 NW 1012,5 16 0,0
29.06.2020 07:00:00 21,7 19,4 15 8 WNW 1011,9 16 -
29.06.2020 06:00:00 20,6 19,4 11 6 WNW 1011,1 16 -
29.06.2020 05:00:00 21,7 20,0 13 7 W 1010,9 16 0,0
29.06.2020 04:00:00 21,7 20,0 15 8 WSW 1010,8 16 -
29.06.2020 03:00:00 22,2 20,0 16 9 W 1010,9 16 -
29.06.2020 02:00:00 22,2 20,0 13 7 W 1011,3 16 0,0
29.06.2020 01:00:00 22,8 20,0 11 6 WSW 1011,3 16 -
29.06.2020 00:00:00 22,8 20,0 8 4 W 1011,8 16 -
28.06.2020 23:00:00 23,3 20,0 5 3 W 1011,3 16 0,0
28.06.2020 22:00:00 22,8 20,0 5 3 WNW 1010,8 16 -
28.06.2020 21:00:00 23,3 19,4 15 8 W 1010,6 16 -
28.06.2020 20:00:00 23,3 20,0 13 7 WSW 1010,4 16 0,0
28.06.2020 19:00:00 25,0 20,6 16 9 WSW 1010,3 16 0,0
28.06.2020 18:00:00 27,8 21,1 16 9 NW 1010,1 16 0,0
28.06.2020 17:00:00 27,2 22,2 8 4 WNW 1010,7 16 2,3
28.06.2020 16:00:00 22,2 20,6 8 4 N 1011,9 8 2,3
28.06.2020 15:00:00 30,0 20,0 18 10 NW 1011,1 16 -
28.06.2020 14:00:00 29,4 19,4 24 13 NW 1011,5 16 0,0
28.06.2020 13:00:00 28,3 20,6 18 10 NW 1011,9 16 -
28.06.2020 12:00:00 27,2 20,0 21 11 NW 1012,4 16 -
28.06.2020 11:00:00 27,8 20,0 21 11 W 1012,2 16 0,0
28.06.2020 10:00:00 24,4 19,4 16 9 W 1012,4 16 -

tt = temperature
td = dewpoint
ff = wind speed
dd = wind direction
ppp = reduced air pressure
vv = visibility
rr = precipitation

Next stations